Weather History for Clermont County, Batavia, OH

Change the Weather History Date:

Thursday, June 13, 2013

  Actual Average (KLUK) Record (KLUK)
Temperature  
Mean Temperature 75 °F -  
Max Temperature 82 °F 84 °F 93 °F (1976)
Min Temperature 68 °F 61 °F 46 °F (1963)
Cooling Degree Days 10    
Growing Degree Days 25 (Base 50)    
Moisture  
Dew Point 64 °F    
Average Humidity 70    
Maximum Humidity 100    
Minimum Humidity 44    
Precipitation  
Precipitation 0.55 in - - ()
Sea Level Pressure  
Sea Level Pressure 29.77 in    
Wind  
Wind Speed 10 mph ()    
Max Wind Speed 18 mph    
Max Gust Speed 29 mph    
Visibility 9.6 miles    
Events      
Averages and records for this station are not official NWS values.
T = Trace of Precipitation, MM = Missing Value Source: Averaged Metar Reports

Daily Weather History Graph

Daily Weather History Graph

Search for Another Location

Airport:

Trip Planner

Search our weather history database for the weather conditions in past years. The results will help you decide how hot, cold, wet, or windy it might be!

Date:

Astronomy

Jun. 13, 2013 Rise Set
Actual Time 6:10 AM EDT 9:03 PM EDT
Civil Twilight 5:38 AM EDT 9:35 PM EDT
Nautical Twilight 4:57 AM EDT 10:16 PM EDT
Astronomical Twilight 4:11 AM EDT 11:03 PM EDT
Moon 10:44 AM EDT (6/13) No Moon Set
Length of Visible Light 15h 57m
Length of Day
14h 53m
Waxing Crescent, 21% of the Moon is Illuminated
Jun 13
Waxing Crescent
Jun 16
First Quarter
Jun 23
Full
Jun 30
Last Quarter
Jul 8
New

Hourly Weather History & Observations

Time (EDT) Temp. Heat Index Dew Point Humidity Pressure Visibility Wind Dir Wind Speed Gust Speed Precip Events Conditions
12:15 AM 82.4 °F 86.3 °F 69.8 °F 66% 29.77 in 10.0 mi SW 12.7 mph 17.3 mph N/A   Scattered Clouds
12:34 AM 82.4 °F 86.3 °F 69.8 °F 66% 29.77 in 10.0 mi SW 11.5 mph - N/A   Scattered Clouds
12:55 AM 82.4 °F 86.3 °F 69.8 °F 66% 29.76 in 10.0 mi SW 9.2 mph - N/A   Mostly Cloudy
1:15 AM 80.6 °F 83.9 °F 69.8 °F 70% 29.74 in 10.0 mi SW 12.7 mph - N/A   Scattered Clouds
1:34 AM 80.6 °F 83.9 °F 69.8 °F 70% 29.73 in 10.0 mi SW 10.4 mph 17.3 mph N/A   Clear
1:55 AM 80.6 °F 83.9 °F 69.8 °F 70% 29.72 in 10.0 mi SW 13.8 mph 20.7 mph N/A   Clear
2:15 AM 80.6 °F 83.9 °F 69.8 °F 70% 29.71 in 10.0 mi SW 15.0 mph 24.2 mph N/A   Scattered Clouds
2:34 AM 80.6 °F 83.9 °F 69.8 °F 70% 29.70 in 10.0 mi SW 17.3 mph 21.9 mph N/A   Scattered Clouds
2:55 AM 80.6 °F 83.9 °F 69.8 °F 70% 29.68 in 10.0 mi SW 12.7 mph 21.9 mph N/A   Mostly Cloudy
3:14 AM 80.6 °F 84.6 °F 71.6 °F 74% 29.68 in 10.0 mi SW 18.4 mph 25.3 mph N/A   Mostly Cloudy
3:34 AM 80.6 °F 84.6 °F 71.6 °F 74% 29.67 in 10.0 mi WSW 17.3 mph 24.2 mph N/A   Overcast
3:55 AM 80.6 °F 84.6 °F 71.6 °F 74% 29.67 in 10.0 mi WSW 15.0 mph 24.2 mph N/A   Overcast
4:14 AM 80.6 °F 84.6 °F 71.6 °F 74% 29.67 in 10.0 mi WSW 13.8 mph 21.9 mph N/A   Overcast
4:34 AM 80.6 °F 84.6 °F 71.6 °F 74% 29.66 in 10.0 mi WSW 13.8 mph 23.0 mph N/A   Overcast
4:55 AM 80.6 °F 84.6 °F 71.6 °F 74% 29.67 in 10.0 mi WSW 15.0 mph 24.2 mph N/A   Overcast
5:14 AM 78.8 °F - 71.6 °F 78% 29.66 in 10.0 mi WSW 11.5 mph 20.7 mph N/A   Overcast
5:35 AM 78.8 °F - 71.6 °F 78% 29.66 in 10.0 mi WSW 11.5 mph - N/A   Overcast
5:55 AM 77.0 °F - 69.8 °F 78% 29.67 in 10.0 mi Calm Calm - N/A   Overcast
6:14 AM 73.4 °F - 69.8 °F 88% 29.66 in 10.0 mi Calm Calm - N/A   Overcast
6:35 AM 77.0 °F - 71.6 °F 83% 29.66 in 10.0 mi SW 6.9 mph - N/A   Overcast
6:55 AM 78.8 °F - 71.6 °F 78% 29.66 in 10.0 mi West 11.5 mph - N/A   Overcast
7:14 AM 77.0 °F - 69.8 °F 78% 29.67 in 10.0 mi Calm Calm - N/A   Overcast
7:35 AM 78.8 °F - 71.6 °F 78% 29.66 in 10.0 mi WSW 5.8 mph - N/A   Overcast
7:55 AM 78.8 °F - 71.6 °F 78% 29.65 in 10.0 mi SW 8.1 mph - N/A   Mostly Cloudy
8:14 AM 80.6 °F 84.6 °F 71.6 °F 74% 29.65 in 10.0 mi SW 12.7 mph - N/A   Scattered Clouds
8:35 AM 80.6 °F 84.6 °F 71.6 °F 74% 29.64 in 10.0 mi SW 11.5 mph 17.3 mph N/A   Mostly Cloudy
8:55 AM 78.8 °F - 71.6 °F 78% 29.63 in 10.0 mi WSW 10.4 mph 17.3 mph N/A   Overcast
9:14 AM 80.6 °F 84.6 °F 71.6 °F 74% 29.66 in 10.0 mi West 15.0 mph 28.8 mph N/A   Overcast
9:35 AM 68.0 °F - 64.4 °F 88% 29.72 in 1.2 mi NNW 11.5 mph 18.4 mph 0.36 in   Overcast
9:55 AM 68.0 °F - 66.2 °F 94% 29.71 in 4.0 mi NNW 6.9 mph - 0.47 in   Overcast
10:14 AM 68.0 °F - 66.2 °F 94% 29.72 in 10.0 mi WNW 4.6 mph - 0.01 in   Mostly Cloudy
10:35 AM 68.0 °F - 66.2 °F 94% 29.71 in 10.0 mi NW 5.8 mph - 0.01 in   Mostly Cloudy
10:55 AM 68.0 °F - 68.0 °F 100% 29.71 in 10.0 mi NNW 5.8 mph - 0.01 in   Mostly Cloudy
11:14 AM 69.8 °F - 68.0 °F 94% 29.72 in 10.0 mi Calm Calm - N/A   Mostly Cloudy
11:35 AM 69.8 °F - 68.0 °F 94% 29.74 in 10.0 mi NNW 6.9 mph - N/A   Overcast
11:55 AM 69.8 °F - 68.0 °F 94% 29.76 in 10.0 mi NNW 12.7 mph 18.4 mph N/A   Overcast
12:14 PM 71.6 °F - 68.0 °F 88% 29.77 in 10.0 mi NNW 9.2 mph 17.3 mph N/A   Overcast
12:35 PM 69.8 °F - 66.2 °F 88% 29.78 in 10.0 mi NNW 10.4 mph 18.4 mph N/A   Overcast
12:55 PM 71.6 °F - 66.2 °F 83% 29.78 in 10.0 mi NW 8.1 mph - N/A   Overcast
1:14 PM 71.6 °F - 64.4 °F 78% 29.79 in 10.0 mi NNW 5.8 mph - N/A   Overcast
1:35 PM 71.6 °F - 64.4 °F 78% 29.79 in 7.0 mi NNW 3.5 mph - 0.01 in   Overcast
1:55 PM 69.8 °F - 66.2 °F 88% 29.81 in 1.5 mi North 8.1 mph - 0.07 in   Overcast
2:14 PM 69.8 °F - 68.0 °F 94% 29.81 in 7.0 mi North 5.8 mph - N/A   Overcast
2:35 PM 71.6 °F - 68.0 °F 88% 29.81 in 10.0 mi North 4.6 mph - N/A   Overcast
2:54 PM 73.4 °F - 66.2 °F 78% 29.82 in 10.0 mi NNW 10.4 mph - N/A   Overcast
3:15 PM 73.4 °F - 62.6 °F 69% 29.83 in 10.0 mi North 10.4 mph 18.4 mph N/A   Mostly Cloudy
3:35 PM 75.2 °F - 59.0 °F 57% 29.83 in 10.0 mi NNW 13.8 mph 20.7 mph N/A   Scattered Clouds
3:54 PM 75.2 °F - 57.2 °F 53% 29.84 in 10.0 mi NNE 10.4 mph 20.7 mph N/A   Scattered Clouds
4:15 PM 77.0 °F - 55.4 °F 47% 29.85 in 10.0 mi NNW 13.8 mph 20.7 mph N/A   Scattered Clouds
4:35 PM 77.0 °F - 53.6 °F 44% 29.85 in 10.0 mi NNW 16.1 mph 20.7 mph N/A   Scattered Clouds
4:54 PM 77.0 °F - 55.4 °F 47% 29.86 in 10.0 mi North 10.4 mph 18.4 mph N/A   Scattered Clouds
5:15 PM 77.0 °F - 55.4 °F 47% 29.86 in 10.0 mi North 8.1 mph - N/A   Mostly Cloudy
5:35 PM 77.0 °F - 55.4 °F 47% 29.85 in 10.0 mi North 8.1 mph 16.1 mph N/A   Mostly Cloudy
5:54 PM 77.0 °F - 55.4 °F 47% 29.85 in 10.0 mi NNW 11.5 mph - N/A   Scattered Clouds
6:15 PM 77.0 °F - 53.6 °F 44% 29.85 in 10.0 mi NNW 11.5 mph 21.9 mph N/A   Mostly Cloudy
6:35 PM 77.0 °F - 55.4 °F 47% 29.85 in 10.0 mi NNW 8.1 mph - N/A   Mostly Cloudy
6:54 PM 77.0 °F - 55.4 °F 47% 29.85 in 10.0 mi NNW 11.5 mph 21.9 mph N/A   Scattered Clouds
7:15 PM 77.0 °F - 53.6 °F 44% 29.86 in 10.0 mi NW 9.2 mph - N/A   Clear
7:35 PM 75.2 °F - 53.6 °F 47% 29.86 in 10.0 mi NNW 8.1 mph - N/A   Clear
7:54 PM 75.2 °F - 51.8 °F 44% 29.86 in 10.0 mi NNW 9.2 mph 16.1 mph N/A   Clear
8:15 PM 73.4 °F - 51.8 °F 47% 29.87 in 10.0 mi North 4.6 mph - N/A   Clear
8:35 PM 73.4 °F - 53.6 °F 50% 29.87 in 10.0 mi NNW 4.6 mph - N/A   Clear
8:54 PM 71.6 °F - 53.6 °F 53% 29.88 in 10.0 mi NNW 5.8 mph - N/A   Clear
9:15 PM 71.6 °F - 53.6 °F 53% 29.88 in 10.0 mi NNW 4.6 mph - N/A   Clear
9:35 PM 71.6 °F - 55.4 °F 57% 29.89 in 10.0 mi NW 5.8 mph - N/A   Clear
9:54 PM 69.8 °F - 55.4 °F 60% 29.89 in 10.0 mi NW 4.6 mph - N/A   Clear
10:15 PM 69.8 °F - 55.4 °F 60% 29.91 in 10.0 mi NW 4.6 mph - N/A   Clear
10:35 PM 69.8 °F - 55.4 °F 60% 29.92 in 10.0 mi NW 9.2 mph - N/A   Scattered Clouds
10:54 PM 69.8 °F - 55.4 °F 60% 29.92 in 10.0 mi NW 9.2 mph - N/A   Scattered Clouds
11:15 PM 69.8 °F - 55.4 °F 60% 29.93 in 10.0 mi NNW 8.1 mph - N/A   Clear
11:35 PM 68.0 °F - 55.4 °F 64% 29.93 in 10.0 mi NW 4.6 mph - N/A   Clear
11:54 PM 68.0 °F - 53.6 °F 60% 29.93 in 10.0 mi NNW 9.2 mph - N/A   Clear